Darstellungsparameter: Aktuell verwendete Einstellungen:
Skalierung der Graphiken ... ?
xyx+y,   Skalierungsfaktor:      Skalierung: Modus: x, Faktor: 1
Darstellungszeitraum ... ?
Vom - - bis: - -   Zeitraum: 01.09.2019 - 01.09.2019
Min/Max/Avg-Anzeige ... ?
Zeige MMA aktuell
Zeige MMA Monat
Zeige MMA alles
Zeige --A aktuell
Zeige --A Monat
Zeige --A alles
Keine MMA-Anzeige
MMA:
Keine MMA-Graphiken
MMA-Basis: 01.09.2019 - 01.09.2019
Quicknavigation für Darstellung... ?
Tage:      1T, 2T, 3T, 5T -1T -2T -3T -5T +1T +2T +3T +5T
Wochen: 1W, 2W, 3W -1W -2W -3W +1W +2W +3W
Monate: 1M, 3M, 6M -1M -3M -6M +1M +3M +6M
Jahre:    1J, 3J, 5J, 10J -1J -3J -5J -10J +1J +3J +5J +10J
Nutze für die Darstellung ... ?
Originaldaten oder Mittelwerte auf ...
Stundenbasis Tagesbasis Wochenbasis
Monatsbasis Jahresbasis      Datenbasis: Original-Daten
Darstellen als:
Statistik (Auto) Statistik J:M      Darstellung:
Zur Graphik,    zurück zur Übersicht aller Sensoren.
 
Tabellarische Datenbersicht: ?
 
Sensor: Nr:Datum:Temp:Feuchte:Taupunkt:
Aussen-T/F 1 01-09-2019 00:00:00 19.9 C 91 % 18.39 C
2 01-09-2019 00:05:00 19.9 C 91 % 18.39 C
3 01-09-2019 00:10:00 19.9 C 91 % 18.39 C
4 01-09-2019 00:15:00 19.8 C 91 % 18.29 C
5 01-09-2019 00:20:00 19.8 C 91 % 18.29 C
6 01-09-2019 00:25:00 19.7 C 91 % 18.19 C
7 01-09-2019 00:30:00 19.7 C 91 % 18.19 C
8 01-09-2019 00:35:00 19.6 C 91 % 18.09 C
9 01-09-2019 00:40:00 19.5 C 91 % 17.99 C
10 01-09-2019 00:45:00 19.4 C 92 % 18.07 C
11 01-09-2019 00:50:00 19.4 C 92 % 18.07 C
12 01-09-2019 00:55:00 19.4 C 92 % 18.07 C
13 01-09-2019 01:00:00 19.4 C 92 % 18.07 C
14 01-09-2019 01:05:00 19.4 C 92 % 18.07 C
15 01-09-2019 01:10:00 19.4 C 92 % 18.07 C
16 01-09-2019 01:15:00 19.4 C 92 % 18.07 C
17 01-09-2019 01:20:00 19.4 C 91 % 17.89 C
18 01-09-2019 01:25:00 19.3 C 91 % 17.79 C
19 01-09-2019 01:30:00 19.3 C 91 % 17.79 C
20 01-09-2019 01:35:00 19.3 C 91 % 17.79 C
21 01-09-2019 01:40:00 19.3 C 90 % 17.62 C
22 01-09-2019 01:45:00 19.3 C 90 % 17.62 C
23 01-09-2019 01:50:00 19.3 C 90 % 17.62 C
24 01-09-2019 01:55:00 19.3 C 89 % 17.44 C
25 01-09-2019 02:00:00 19.3 C 89 % 17.44 C
Sensor: Nr:Datum:Temp:Feuchte:Taupunkt:
Aussen-T/F 26 01-09-2019 02:05:00 19.3 C 88 % 17.26 C
27 01-09-2019 02:10:00 19.3 C 88 % 17.26 C
28 01-09-2019 02:15:00 19.2 C 87 % 16.98 C
29 01-09-2019 02:20:00 19.3 C 86 % 16.9 C
30 01-09-2019 02:25:00 19.2 C 85 % 16.62 C
31 01-09-2019 02:30:00 19.2 C 85 % 16.62 C
32 01-09-2019 02:35:00 19.1 C 85 % 16.52 C
33 01-09-2019 02:40:00 19 C 84 % 16.24 C
34 01-09-2019 02:45:00 18.9 C 84 % 16.14 C
35 01-09-2019 02:50:00 18.8 C 85 % 16.23 C
36 01-09-2019 02:55:00 18.7 C 85 % 16.13 C
37 01-09-2019 03:00:00 18.6 C 85 % 16.03 C
38 01-09-2019 03:05:00 18.4 C 86 % 16.02 C
39 01-09-2019 03:10:00 18.4 C 86 % 16.02 C
40 01-09-2019 03:15:00 18.3 C 86 % 15.92 C
41 01-09-2019 03:20:00 18.3 C 86 % 15.92 C
42 01-09-2019 03:25:00 18.3 C 86 % 15.92 C
43 01-09-2019 03:30:00 18.2 C 86 % 15.82 C
44 01-09-2019 03:35:00 18.2 C 84 % 15.45 C
45 01-09-2019 03:40:00 18.1 C 84 % 15.35 C
46 01-09-2019 03:45:00 18.3 C 81 % 14.98 C
47 01-09-2019 03:50:00 18.4 C 80 % 14.89 C
48 01-09-2019 03:55:00 18.4 C 79 % 14.69 C
49 01-09-2019 04:00:00 18.3 C 79 % 14.6 C
50 01-09-2019 04:05:00 18.1 C 80 % 14.6 C
Sensor: Nr:Datum:Temp:Feuchte:Taupunkt:
Aussen-T/F 51 01-09-2019 04:10:00 18 C 79 % 14.31 C
52 01-09-2019 04:15:00 18.2 C 80 % 14.69 C
53 01-09-2019 04:20:00 18.1 C 79 % 14.4 C
54 01-09-2019 04:25:00 18.1 C 80 % 14.6 C
55 01-09-2019 04:30:00 17.9 C 80 % 14.4 C
56 01-09-2019 04:35:00 17.8 C 80 % 14.31 C
57 01-09-2019 04:40:00 17.7 C 81 % 14.4 C
58 01-09-2019 04:45:00 17.6 C 81 % 14.3 C
59 01-09-2019 04:50:00 17.4 C 81 % 14.11 C
60 01-09-2019 04:55:00 17.4 C 82 % 14.3 C
61 01-09-2019 05:00:00 17.4 C 82 % 14.3 C
62 01-09-2019 05:05:00 17.4 C 81 % 14.11 C
63 01-09-2019 05:10:00 17.6 C 80 % 14.11 C
64 01-09-2019 05:15:00 17.7 C 80 % 14.21 C
65 01-09-2019 05:20:00 17.8 C 79 % 14.11 C
66 01-09-2019 05:25:00 17.9 C 79 % 14.21 C
67 01-09-2019 05:30:00 18.1 C 78 % 14.21 C
68 01-09-2019 05:35:00 18.1 C 78 % 14.21 C
69 01-09-2019 05:40:00 18.1 C 78 % 14.21 C
70 01-09-2019 05:45:00 18.1 C 78 % 14.21 C
71 01-09-2019 05:50:00 18 C 78 % 14.11 C
72 01-09-2019 05:55:00 17.9 C 78 % 14.01 C
73 01-09-2019 06:00:00 17.8 C 78 % 13.91 C
74 01-09-2019 06:05:00 17.8 C 78 % 13.91 C
75 01-09-2019 06:10:00 17.7 C 78 % 13.82 C
Sensor: Nr:Datum:Temp:Feuchte:Taupunkt:
Aussen-T/F 76 01-09-2019 06:15:00 17.7 C 78 % 13.82 C
77 01-09-2019 06:20:00 17.7 C 78 % 13.82 C
78 01-09-2019 06:25:00 17.6 C 79 % 13.92 C
79 01-09-2019 06:30:00 17.4 C 79 % 13.72 C
80 01-09-2019 06:35:00 17.2 C 80 % 13.72 C
81 01-09-2019 06:40:00 17 C 81 % 13.72 C
82 01-09-2019 06:45:00 16.8 C 81 % 13.52 C
83 01-09-2019 06:50:00 16.6 C 82 % 13.52 C
84 01-09-2019 06:55:00 16.4 C 83 % 13.51 C
85 01-09-2019 07:00:00 16.2 C 84 % 13.5 C
86 01-09-2019 07:05:00 16.1 C 84 % 13.4 C
87 01-09-2019 07:10:00 16 C 85 % 13.48 C
88 01-09-2019 07:15:00 15.9 C 85 % 13.38 C
89 01-09-2019 07:20:00 15.9 C 85 % 13.38 C
90 01-09-2019 07:25:00 15.9 C 86 % 13.56 C
91 01-09-2019 07:30:00 15.9 C 86 % 13.56 C
92 01-09-2019 07:35:00 15.9 C 87 % 13.74 C
93 01-09-2019 07:40:00 16.1 C 87 % 13.94 C
94 01-09-2019 07:45:00 16.2 C 87 % 14.03 C
95 01-09-2019 07:50:00 16.4 C 86 % 14.05 C
96 01-09-2019 07:55:00 16.7 C 86 % 14.35 C
97 01-09-2019 08:00:00 16.8 C 84 % 14.08 C
98 01-09-2019 08:05:00 17 C 84 % 14.28 C
99 01-09-2019 08:10:00 17.2 C 84 % 14.47 C
100 01-09-2019 08:15:00 17.4 C 84 % 14.67 C
Sensor: Nr:Datum:Temp:Feuchte:Taupunkt:
Aussen-T/F 101 01-09-2019 08:20:00 17.4 C 82 % 14.3 C
102 01-09-2019 08:25:00 17.6 C 82 % 14.49 C
103 01-09-2019 08:30:00 17.7 C 82 % 14.59 C
104 01-09-2019 08:35:00 17.7 C 82 % 14.59 C
105 01-09-2019 08:40:00 17.8 C 82 % 14.69 C
106 01-09-2019 08:45:00 17.7 C 81 % 14.4 C
107 01-09-2019 08:50:00 17.7 C 82 % 14.59 C
108 01-09-2019 08:55:00 17.8 C 82 % 14.69 C
109 01-09-2019 09:00:00 17.8 C 82 % 14.69 C
110 01-09-2019 09:05:00 17.8 C 82 % 14.69 C
111 01-09-2019 09:10:00 17.8 C 81 % 14.5 C
112 01-09-2019 09:15:00 17.9 C 81 % 14.59 C
113 01-09-2019 09:20:00 18 C 81 % 14.69 C
114 01-09-2019 09:25:00 18.1 C 80 % 14.6 C
115 01-09-2019 09:30:00 18.1 C 81 % 14.79 C
116 01-09-2019 09:35:00 18.2 C 81 % 14.89 C
117 01-09-2019 09:40:00 18.2 C 79 % 14.5 C
118 01-09-2019 09:45:00 18.4 C 80 % 14.89 C
119 01-09-2019 09:50:00 18.6 C 79 % 14.89 C
120 01-09-2019 09:55:00 18.7 C 79 % 14.99 C
121 01-09-2019 10:00:00 18.7 C 78 % 14.79 C
122 01-09-2019 10:05:00 18.8 C 78 % 14.88 C
123 01-09-2019 10:10:00 18.9 C 77 % 14.78 C
124 01-09-2019 10:15:00 18.9 C 77 % 14.78 C
125 01-09-2019 10:20:00 18.9 C 76 % 14.58 C
Sensor: Nr:Datum:Temp:Feuchte:Taupunkt:
Aussen-T/F 126 01-09-2019 10:25:00 19 C 77 % 14.88 C
127 01-09-2019 10:30:00 19 C 76 % 14.68 C
128 01-09-2019 10:35:00 19.1 C 76 % 14.77 C
129 01-09-2019 10:40:00 19.2 C 76 % 14.87 C
130 01-09-2019 10:45:00 19.4 C 76 % 15.06 C
131 01-09-2019 10:50:00 19.6 C 75 % 15.05 C
132 01-09-2019 10:55:00 19.8 C 76 % 15.45 C
133 01-09-2019 11:00:00 19.9 C 75 % 15.34 C
134 01-09-2019 11:05:00 19.9 C 74 % 15.13 C
135 01-09-2019 11:10:00 19.9 C 75 % 15.34 C
136 01-09-2019 11:15:00 19.9 C 75 % 15.34 C
137 01-09-2019 11:20:00 20 C 74 % 15.23 C
138 01-09-2019 11:25:00 20.1 C 73 % 15.11 C
139 01-09-2019 11:30:00 20.2 C 74 % 15.42 C
140 01-09-2019 11:35:00 20.2 C 74 % 15.42 C
141 01-09-2019 11:40:00 20.1 C 73 % 15.11 C
142 01-09-2019 11:45:00 20.1 C 74 % 15.32 C
143 01-09-2019 11:50:00 20 C 74 % 15.23 C
144 01-09-2019 11:55:00 20 C 76 % 15.64 C
145 01-09-2019 12:00:00 20 C 75 % 15.43 C
146 01-09-2019 12:05:00 19.9 C 75 % 15.34 C
147 01-09-2019 12:10:00 19.8 C 75 % 15.24 C
148 01-09-2019 12:15:00 19.7 C 76 % 15.35 C
149 01-09-2019 12:20:00 19.6 C 76 % 15.26 C
150 01-09-2019 12:25:00 19.6 C 76 % 15.26 C
Sensor: Nr:Datum:Temp:Feuchte:Taupunkt:
Aussen-T/F 151 01-09-2019 12:30:00 19.8 C 76 % 15.45 C
152 01-09-2019 12:35:00 19.9 C 75 % 15.34 C
153 01-09-2019 12:40:00 20.1 C 75 % 15.53 C
154 01-09-2019 12:45:00 20.4 C 74 % 15.61 C
155 01-09-2019 12:50:00 20.8 C 72 % 15.57 C
156 01-09-2019 12:55:00 21 C 73 % 15.98 C
157 01-09-2019 13:00:00 20.9 C 72 % 15.66 C
158 01-09-2019 13:05:00 20.7 C 73 % 15.69 C
159 01-09-2019 13:10:00 20.3 C 77 % 16.14 C
160 01-09-2019 13:15:00 19.8 C 79 % 16.05 C
161 01-09-2019 13:20:00 19.6 C 80 % 16.06 C
162 01-09-2019 13:25:00 19.3 C 80 % 15.76 C
163 01-09-2019 13:30:00 19.3 C 79 % 15.57 C
164 01-09-2019 13:35:00 19.2 C 80 % 15.67 C
165 01-09-2019 13:40:00 19.3 C 80 % 15.76 C
166 01-09-2019 13:45:00 19.3 C 79 % 15.57 C
167 01-09-2019 13:50:00 19.3 C 78 % 15.37 C
168 01-09-2019 13:55:00 19.3 C 78 % 15.37 C
169 01-09-2019 14:00:00 19.3 C 77 % 15.17 C
170 01-09-2019 14:05:00 19.4 C 77 % 15.27 C
171 01-09-2019 14:10:00 19.5 C 77 % 15.36 C
172 01-09-2019 14:15:00 19.8 C 77 % 15.65 C
173 01-09-2019 14:20:00 19.9 C 76 % 15.54 C
174 01-09-2019 14:25:00 20.1 C 77 % 15.94 C
175 01-09-2019 14:30:00 20.3 C 77 % 16.14 C
Sensor: Nr:Datum:Temp:Feuchte:Taupunkt:
Aussen-T/F 176 01-09-2019 14:35:00 20.4 C 75 % 15.82 C
177 01-09-2019 14:40:00 20.5 C 74 % 15.71 C
178 01-09-2019 14:45:00 20.5 C 74 % 15.71 C
179 01-09-2019 14:50:00 20.6 C 74 % 15.8 C
180 01-09-2019 14:55:00 20.6 C 73 % 15.59 C
181 01-09-2019 15:00:00 20.6 C 72 % 15.38 C
182 01-09-2019 15:05:00 20.6 C 72 % 15.38 C
183 01-09-2019 15:10:00 20.6 C 72 % 15.38 C
184 01-09-2019 15:15:00 20.7 C 71 % 15.25 C
185 01-09-2019 15:20:00 20.7 C 72 % 15.47 C
186 01-09-2019 15:25:00 20.7 C 72 % 15.47 C
187 01-09-2019 15:30:00 20.6 C 72 % 15.38 C
188 01-09-2019 15:35:00 20.6 C 72 % 15.38 C
189 01-09-2019 15:40:00 20.6 C 71 % 15.16 C
190 01-09-2019 15:45:00 20.5 C 72 % 15.28 C
191 01-09-2019 15:50:00 20.6 C 71 % 15.16 C
192 01-09-2019 15:55:00 20.6 C 71 % 15.16 C
193 01-09-2019 16:00:00 20.6 C 72 % 15.38 C
194 01-09-2019 16:05:00 20.6 C 70 % 14.94 C
195 01-09-2019 16:10:00 20.5 C 70 % 14.84 C
196 01-09-2019 16:15:00 20.4 C 69 % 14.52 C
197 01-09-2019 16:20:00 20.4 C 68 % 14.3 C
198 01-09-2019 16:25:00 20.4 C 67 % 14.07 C
199 01-09-2019 16:30:00 20.4 C 67 % 14.07 C
200 01-09-2019 16:35:00 20.3 C 67 % 13.97 C
Sensor: Nr:Datum:Temp:Feuchte:Taupunkt:
Aussen-T/F 201 01-09-2019 16:40:00 20.3 C 67 % 13.97 C
202 01-09-2019 16:45:00 20.3 C 67 % 13.97 C
203 01-09-2019 16:50:00 20.2 C 66 % 13.65 C
204 01-09-2019 16:55:00 20.2 C 66 % 13.65 C
205 01-09-2019 17:00:00 20.1 C 65 % 13.32 C
206 01-09-2019 17:05:00 20.1 C 66 % 13.55 C
207 01-09-2019 17:10:00 20 C 66 % 13.46 C
208 01-09-2019 17:15:00 20 C 66 % 13.46 C
209 01-09-2019 17:20:00 20 C 66 % 13.46 C
210 01-09-2019 17:25:00 19.9 C 66 % 13.36 C
211 01-09-2019 17:30:00 19.9 C 66 % 13.36 C
212 01-09-2019 17:35:00 20 C 66 % 13.46 C
213 01-09-2019 17:40:00 20 C 64 % 12.99 C
214 01-09-2019 17:45:00 19.9 C 64 % 12.89 C
215 01-09-2019 17:50:00 19.9 C 65 % 13.13 C
216 01-09-2019 17:55:00 19.9 C 65 % 13.13 C
217 01-09-2019 18:00:00 20 C 64 % 12.99 C
218 01-09-2019 18:05:00 20.1 C 64 % 13.08 C
219 01-09-2019 18:10:00 20.1 C 65 % 13.32 C
220 01-09-2019 18:15:00 20.2 C 64 % 13.18 C
221 01-09-2019 18:20:00 20.4 C 63 % 13.12 C
222 01-09-2019 18:25:00 20.7 C 61 % 12.91 C
223 01-09-2019 18:30:00 20.8 C 61 % 13.01 C
224 01-09-2019 18:35:00 21 C 60 % 12.94 C
225 01-09-2019 18:40:00 21.3 C 59 % 12.97 C
Sensor: Nr:Datum:Temp:Feuchte:Taupunkt:
Aussen-T/F 226 01-09-2019 18:45:00 21.4 C 55 % 11.99 C
227 01-09-2019 18:50:00 21.5 C 55 % 12.08 C
228 01-09-2019 18:55:00 21.6 C 56 % 12.45 C
229 01-09-2019 19:00:00 21.6 C 55 % 12.18 C
230 01-09-2019 19:05:00 21.4 C 55 % 11.99 C
231 01-09-2019 19:10:00 21.3 C 55 % 11.9 C
232 01-09-2019 19:15:00 21.1 C 56 % 11.99 C
233 01-09-2019 19:20:00 20.9 C 56 % 11.8 C
234 01-09-2019 19:25:00 20.7 C 58 % 12.15 C
235 01-09-2019 19:30:00 20.4 C 58 % 11.86 C
236 01-09-2019 19:35:00 20.3 C 58 % 11.77 C
237 01-09-2019 19:40:00 20.1 C 59 % 11.84 C
238 01-09-2019 19:45:00 20 C 61 % 12.26 C
239 01-09-2019 19:50:00 19.8 C 63 % 12.56 C
240 01-09-2019 19:55:00 19.7 C 61 % 11.97 C
241 01-09-2019 20:00:00 19.6 C 61 % 11.88 C
242 01-09-2019 20:05:00 19.4 C 62 % 11.94 C
243 01-09-2019 20:10:00 19.4 C 63 % 12.18 C
244 01-09-2019 20:15:00 19.3 C 64 % 12.32 C
245 01-09-2019 20:20:00 19.1 C 66 % 12.6 C
246 01-09-2019 20:25:00 18.7 C 66 % 12.22 C
247 01-09-2019 20:30:00 18.3 C 67 % 12.07 C
248 01-09-2019 20:35:00 17.9 C 68 % 11.91 C
249 01-09-2019 20:40:00 17.6 C 69 % 11.85 C
250 01-09-2019 20:45:00 17.3 C 69 % 11.56 C
Sensor: Nr:Datum:Temp:Feuchte:Taupunkt:
Aussen-T/F 251 01-09-2019 20:50:00 17.1 C 71 % 11.8 C
252 01-09-2019 20:55:00 16.9 C 72 % 11.82 C
253 01-09-2019 21:00:00 16.7 C 73 % 11.84 C
254 01-09-2019 21:05:00 16.7 C 72 % 11.63 C
255 01-09-2019 21:10:00 16.7 C 73 % 11.84 C
256 01-09-2019 21:15:00 16.7 C 73 % 11.84 C
257 01-09-2019 21:20:00 16.7 C 72 % 11.63 C
258 01-09-2019 21:25:00 16.7 C 72 % 11.63 C
259 01-09-2019 21:30:00 16.7 C 72 % 11.63 C
260 01-09-2019 21:35:00 16.7 C 72 % 11.63 C
261 01-09-2019 21:40:00 16.7 C 72 % 11.63 C
262 01-09-2019 21:45:00 16.7 C 73 % 11.84 C
263 01-09-2019 21:50:00 16.6 C 72 % 11.54 C
264 01-09-2019 21:55:00 16.6 C 72 % 11.54 C
265 01-09-2019 22:00:00 16.6 C 71 % 11.32 C
266 01-09-2019 22:05:00 16.6 C 71 % 11.32 C
267 01-09-2019 22:10:00 16.5 C 71 % 11.23 C
268 01-09-2019 22:15:00 16.5 C 71 % 11.23 C
269 01-09-2019 22:20:00 16.4 C 71 % 11.13 C
270 01-09-2019 22:25:00 16.4 C 71 % 11.13 C
271 01-09-2019 22:30:00 16.4 C 71 % 11.13 C
272 01-09-2019 22:35:00 16.3 C 71 % 11.04 C
273 01-09-2019 22:40:00 16.3 C 71 % 11.04 C
274 01-09-2019 22:45:00 16.3 C 72 % 11.25 C
275 01-09-2019 22:50:00 16.2 C 73 % 11.36 C
Sensor: Nr:Datum:Temp:Feuchte:Taupunkt:
Aussen-T/F 276 01-09-2019 22:55:00 16.2 C 73 % 11.36 C
277 01-09-2019 23:00:00 16.1 C 73 % 11.26 C
278 01-09-2019 23:05:00 15.9 C 74 % 11.28 C
279 01-09-2019 23:10:00 15.8 C 74 % 11.18 C
280 01-09-2019 23:15:00 15.8 C 75 % 11.38 C
281 01-09-2019 23:20:00 15.7 C 75 % 11.28 C
282 01-09-2019 23:25:00 15.6 C 75 % 11.19 C
283 01-09-2019 23:30:00 15.5 C 75 % 11.09 C
284 01-09-2019 23:35:00 15.4 C 75 % 11 C
285 01-09-2019 23:40:00 15.4 C 76 % 11.19 C
286 01-09-2019 23:45:00 15.4 C 76 % 11.19 C
287 01-09-2019 23:50:00 15.3 C 76 % 11.1 C
288 01-09-2019 23:55:00 15.2 C 76 % 11 C

Legende:
   Min
   Max


Maximal/Minimal-Werte vom 01.09.2019 - 01.09.2019

Sensor Min Max Avg
Temp
(Aussen-T/F)
15.2 °C
01-09-2019  23:55:00
21.6 °C
01-09-2019  18:55:00
18.73 °C
Feuchte
(Aussen-T/F)
55 %
01-09-2019  18:45:00
92 %
01-09-2019  00:45:00
76.16 %
Taupunkt
(Aussen-T/F)
11 C
01-09-2019  23:35:00
18.39 C
01-09-2019  00:00:00
14.3 C

Die Daten stammen von einer Davis Vantage Pro 2 Wetter-Station und werden unter Linux mit der Software wview2wettercgi und aufbereitet. Alle Angaben erfolgen ohne Gewähr für ihre Vollständigkeit oder Richtigkeit.
Kontakt: Rainer Krienke krienke@uni-koblenz.de . Meine Webseiten an der Uni Koblenz oder privat.
Version: $Revision: 0.78 $